Volver al catálogo

SJ-23

ActivoCienciaGEO
NORAD 55131·PAYLOAD·🇨🇳 China

Lanzado Jan 8, 2023 desde Wenchang Space Launch Site

Loading…

TLE

ActualizadoSource: Space-Track

Época: Sep 13, 2026, 16:51 UTC

1 55131U 23002A   26256.70253162 -.00000090  00000-0  00000+0 0  9998
2 55131   3.9392  77.1499 0002965 230.4773  18.0889  1.00024594 13393

Sigue SJ-23 en tiempo real con AllMySat

Download on the App Store